USGS - science for a changing world

Kansas Water Science Center

Jump to content

Jump back to navigation

Current Streamflow Conditions

Welcome to the U.S. Geological Survey (USGS) Web page for the water resources of Kansas. Here you'll find information on Kansas's rivers and streams. You'll also find information about groundwater, water quality, and many other topics. The USGS operates the most extensive satellite network of stream-gaging stations in the state, many of which form the backbone of flood-warning systems.

The Kansas Water Science Center provides current ("real-time") stream stage in Kansas and streamflow, water-quality, and groundwater levels for over 200 sites.
The USGS provides National ("real-time") stream stage and streamflow, water-quality, and groundwater levels for over 7000 sites.

Of Current Interest

USGS Fact Sheet: Summary of hydrologic conditions in Kansas, water year 2016

Press Release: 20 Years Researching Harmful Algal Blooms Supports Sustainable Water Supply in Wichita

Scientific Investigations Report: Spatial variability of harmful algal blooms in Milford Lake, Kansas, July and August 2015.

Status of groundwater levels and storage volume in the Equus Beds aquifer near Wichita, Kansas, January 2016

Predicting cyanobacterial abundance, microcystin, and geosmin in a eutrophic drinking-water reservoir using a 14-year dataset.

USGS WaterAlert Service Turn Around Don't Drown

Now you can receive instant, customized updates about water conditions by subscribing to WaterAlert, a new service from the U.S. Geological Survey. WaterAlert allows you to receive daily or hourly updates about current conditions in rivers, lakes and groundwater when they match conditions of concern to you.

Kansas Earthquakes - Last 30 days

  1. 1.69 20km W of Caldwell, Kansas 2017-04-27 11:15:16 CDT
  2. 2.23 8km SE of Harper, Kansas 2017-04-27 01:55:43 CDT
  3. 2.05 10km WNW of Caldwell, Kansas 2017-04-24 20:26:58 CDT
  4. 1.84 2km E of Anthony, Kansas 2017-04-24 20:00:46 CDT
  5. 1.85 10km N of Caldwell, Kansas 2017-04-24 02:36:10 CDT
  6. 1.69 11km SSE of Conway Springs, Kansas 2017-04-24 01:16:02 CDT
  7. 1.87 11km SSE of Conway Springs, Kansas 2017-04-23 23:40:06 CDT
  8. 2.05 11km SSE of Conway Springs, Kansas 2017-04-23 23:17:08 CDT
  9. 1.71 2km E of Anthony, Kansas 2017-04-23 18:38:05 CDT
  10. 2.29 15km ESE of Harper, Kansas 2017-04-21 23:05:01 CDT
  11. 1.59 4km ESE of Harper, Kansas 2017-04-21 22:58:23 CDT
  12. 1.78 9km WSW of Wellington, Kansas 2017-04-21 20:59:19 CDT
  13. 1.61 9km WSW of Wellington, Kansas 2017-04-21 13:21:41 CDT
  14. 2.37 9km WSW of Wellington, Kansas 2017-04-20 04:58:34 CDT
  15. 2.07 9km WSW of Wellington, Kansas 2017-04-20 04:36:38 CDT
  16. 2.7 9km SSE of Anthony, Kansas 2017-04-17 19:38:13 CDT
  17. 2.5 9km SSE of Anthony, Kansas 2017-04-17 19:37:34 CDT
  18. 1.57 18km E of Anthony, Kansas 2017-04-16 20:37:44 CDT
  19. 2.9 15km ESE of Harper, Kansas 2017-04-13 23:24:54 CDT
  20. 1.8 15km ESE of Harper, Kansas 2017-04-12 08:16:29 CDT
  21. 1.98 9km WSW of Wellington, Kansas 2017-04-11 21:31:19 CDT
  22. 2.02 11km NNW of Caldwell, Kansas 2017-04-11 04:22:26 CDT
  23. 2.03 15km ESE of Harper, Kansas 2017-04-11 02:07:04 CDT
  24. 1.9 11km NNW of Caldwell, Kansas 2017-04-10 08:07:09 CDT
  25. 1.76 11km NNW of Caldwell, Kansas 2017-04-10 07:50:45 CDT
  26. 1.58 12km NNW of Caldwell, Kansas 2017-04-10 00:53:58 CDT
  27. 1.58 11km NNW of Caldwell, Kansas 2017-04-10 00:16:55 CDT
  28. 3.1 27km NE of Cherokee, Oklahoma 2017-04-09 17:08:54 CDT
  29. 2.8 27km SSW of Anthony, Kansas 2017-04-09 07:57:28 CDT
  30. 2.5 27km SSW of Anthony, Kansas 2017-04-09 07:37:15 CDT
  31. 1.91 2km WSW of Anthony, Kansas 2017-04-08 18:32:38 CDT
  32. 2.1 11km NNW of Caldwell, Kansas 2017-04-08 14:44:21 CDT
  33. 2.6 8km ESE of Mankato, Kansas 2017-04-08 13:49:55 CDT
  34. 2.6 10km ESE of Mankato, Kansas 2017-04-08 10:49:24 CDT
  35. 2.3 3km SSE of Mankato, Kansas 2017-04-08 08:02:54 CDT
  36. 2.6 11km NNW of Caldwell, Kansas 2017-04-08 05:34:40 CDT
  37. 2.9 7km SE of Mankato, Kansas 2017-04-08 00:15:29 CDT
  38. 2.4 2km SW of Anthony, Kansas 2017-04-07 23:41:35 CDT
  39. 2.6 5km ESE of Mankato, Kansas 2017-04-07 21:43:19 CDT
  40. 2.7 2km ESE of Mankato, Kansas 2017-04-07 17:03:11 CDT
  41. 2.6 5km ESE of Mankato, Kansas 2017-04-07 15:16:55 CDT
  42. 3.3 7km ESE of Mankato, Kansas 2017-04-07 15:08:35 CDT
  43. 1.7 9km SSE of Anthony, Kansas 2017-04-06 21:44:23 CDT
  44. 2 6km SE of Mankato, Kansas 2017-04-06 19:55:29 CDT
  45. 3.2 5km SE of Mankato, Kansas 2017-04-06 19:13:18 CDT
  46. 3 6km SE of Mankato, Kansas 2017-04-06 11:01:43 CDT
  47. 2.04 9km SSE of Anthony, Kansas 2017-04-05 22:13:10 CDT
  48. 2.8 5km SE of Mankato, Kansas 2017-04-05 05:36:34 CDT
  49. 2.1 3km ESE of Mankato, Kansas 2017-04-04 13:36:04 CDT
  50. 3.4 3km SSE of Mankato, Kansas 2017-04-04 12:54:35 CDT
  51. 1.9 10km WNW of Caldwell, Kansas 2017-04-04 10:59:19 CDT
  52. 2.16 23km SSE of Anthony, Kansas 2017-04-03 14:38:05 CDT
  53. 1.88 9km WSW of Wellington, Kansas 2017-04-03 08:39:50 CDT
  54. 2.8 1km ESE of Medicine Lodge, Kansas 2017-04-02 18:14:15 CDT
  55. 2.5 26km NE of Cherokee, Oklahoma 2017-04-02 11:42:12 CDT
  56. 2.9 10km W of Belle Plaine, Kansas 2017-03-30 03:32:49 CDT

Highlighted Publications

The Kansas Water Science Center produces publications about water resources.   Search our publications

07188000: Flow=14300cfs,Stage=13.78ft,Floodstage=20ft,2017-04-27 21:00,>90,Spring River near Quapaw, OK 07186000: Flow=7420cfs,Stage=10.38ft,Floodstage=19ft,2017-04-27 21:30,>90,Spring River near Waco, MO 07185000: Flow=14300cfs,Stage=11.41ft,Floodstage=15ft,2017-04-27 21:30,>90,Neosho River near Commerce, OK 06824000: Flow=19cfs,Stage=1.41ft,2017-04-27 20:45,>90,Rock Creek at Parks, Nebr. 06884025: Flow=130cfs,Stage=1.94ft,Floodstage=19ft,2017-04-27 21:00,<10,Little Blue River at Hollenberg, KS 06823500: Flow=3.1cfs,Stage=1.10ft,Floodstage=11ft,2017-04-27 20:45,<10,Buffalo Creek near Haigler, Nebr. 07156900: Flow=23.4cfs,Stage=2.34ft,Floodstage=5ft,2017-04-27 21:00,<10,Cimarron River near Forgan, OK 06821500: Flow=0.11cfs,Stage=4.44ft,Floodstage=12ft,2017-04-27 20:30,<10,Arikaree River at Haigler, Nebr. 07184000: Flow=315cfs,Stage=3.59ft,Floodstage=12ft,2017-04-27 21:45,76-90,LIGHTNING C NR MCCUNE, KS 07183500: Flow=7420cfs,Stage=12.61ft,Floodstage=21ft,2017-04-27 21:00,76-90,NEOSHO R NR PARSONS, KS 07183000: Flow=2970cfs,Stage=8.56ft,Floodstage=15ft,2017-04-27 21:00,76-90,NEOSHO R NR IOLA, KS 07182510: Flow=2320cfs,Stage=9.29ft,Floodstage=27ft,2017-04-27 21:15,76-90,NEOSHO R AT BURLINGTON, KS 07180500: Flow=59cfs,Stage=4.75ft,2017-04-27 21:15,76-90,CEDAR C NR CEDAR POINT, KS 07179795: Flow=89cfs,Stage=5.48ft,2017-04-27 21:30,76-90,N COTTONWOOD R BL MARION LK, KS 07179500: Flow=102cfs,Stage=8.71ft,2017-04-27 22:00,76-90,NEOSHO R AT COUNCIL GROVE, KS 07170500: Flow=6500cfs,Stage=13.04ft,Floodstage=30ft,2017-04-27 22:00,76-90,VERDIGRIS R AT INDEPENDENCE, KS 07169500: Flow=1300cfs,Stage=6.61ft,Floodstage=17ft,2017-04-27 22:00,76-90,FALL R AT FREDONIA, KS 07166500: Flow=1880cfs,Stage=6.64ft,Floodstage=19ft,2017-04-27 21:45,76-90,VERDIGRIS R NR ALTOONA, KS 07147800: Flow=2030cfs,Stage=4.67ft,Floodstage=18ft,2017-04-27 22:00,76-90,WALNUT R AT WINFIELD, KS 07147070: Flow=139cfs,Stage=2.69ft,2017-04-27 21:30,76-90,WHITEWATER R AT TOWANDA, KS 07146500: Flow=3060cfs,Stage=5.62ft,Floodstage=11ft,2017-04-27 22:00,76-90,ARKANSAS R AT ARKANSAS CITY, KS 07145700: Flow=29cfs,Stage=4.35ft,Floodstage=19ft,2017-04-27 22:00,76-90,SLATE C AT WELLINGTON, KS 07145500: Flow=1160cfs,Stage=4.98ft,Floodstage=17ft,2017-04-27 22:00,76-90,NINNESCAH R NR PECK, KS 07145200: Flow=287cfs,Stage=4.27ft,Floodstage=8ft,2017-04-27 22:00,76-90,SF NINNESCAH R NR MURDOCK, KS 07144200: Flow=292cfs,Stage=2.72ft,2017-04-27 21:00,76-90,L ARKANSAS R AT VALLEY CENTER, KS 07143665: Flow=97cfs,Stage=1.77ft,Floodstage=22ft,2017-04-27 21:15,76-90,L ARKANSAS R AT ALTA MILLS, KS 06917500: Flow=758cfs,Stage=13.86ft,Floodstage=38ft,2017-04-27 21:30,76-90,MARMATON R NR FORT SCOTT, KS 06917000: Flow=737cfs,Stage=6.65ft,Floodstage=22ft,2017-04-27 21:15,76-90,L OSAGE R AT FULTON, KS 06911000: Flow=213cfs,Stage=3.82ft,2017-04-27 21:45,76-90,MARAIS DES CYGNES R AT MELVERN, KS 06888000: Flow=104cfs,Stage=4.53ft,2017-04-27 21:45,76-90,VERMILLION C NR WAMEGO, KS 06871500: Flow=17cfs,Stage=3.66ft,Floodstage=9ft,2017-04-27 21:45,76-90,BOW C NR STOCKTON, KS 06869500: Flow=369cfs,Stage=9.38ft,Floodstage=25ft,2017-04-27 21:30,76-90,SALINE R AT TESCOTT, KS 06868200: Flow=94cfs,Stage=4.56ft,2017-04-27 21:45,76-90,SALINE R AT WILSON DAM, KS 06867000: Flow=115cfs,Stage=6.41ft,Floodstage=18ft,2017-04-27 21:30,76-90,SALINE R NR RUSSELL, KS 06866000: Flow=199cfs,Stage=7.42ft,Floodstage=21ft,2017-04-27 21:30,76-90,SMOKY HILL R AT LINDSBORG, KS 06857100: Flow=1560cfs,Stage=7.51ft,2017-04-27 21:30,76-90,REPUBLICAN R AT JUNCTION CITY, KS 06813500: Flow=54200cfs,Stage=11.68ft,Floodstage=17ft,2017-04-27 21:30,76-90,Missouri River at Rulo, NE 07142300: Flow=7.7cfs,Stage=4.20ft,Floodstage=9ft,2017-04-27 21:00,10-24,RATTLESNAKE C NR MACKSVILLE, KS 06884400: Flow=213cfs,Stage=4.02ft,Floodstage=21ft,2017-04-27 21:30,10-24,L BLUE R NR BARNES, KS 06882510: Flow=307cfs,Stage=11.95ft,Floodstage=35ft,2017-04-27 21:30,10-24,BIG BLUE R AT MARYSVILLE, KS 06860000: Flow=0.28cfs,Stage=4.03ft,Floodstage=9ft,2017-04-27 21:30,10-24,SMOKY HILL R AT ELKADER, KS 06854500: Flow=111cfs,Stage=0.87ft,Floodstage=10ft,2017-04-27 21:15,10-24,REPUBLICAN R AT SCANDIA, KS 06848500: Flow=0.53cfs,Stage=1.44ft,Floodstage=21ft,2017-04-27 21:30,10-24,PRAIRIE DOG C NR WOODRUFF, KS 06827500: Flow=9.8cfs,Stage=1.48ft,Floodstage=9ft,2017-04-27 20:30,10-24,South Fork Republican River near Benkelman, Nebr. 07182250: Flow=682cfs,Stage=6.67ft,Floodstage=32ft,2017-04-27 22:00,25-75,COTTONWOOD R NR PLYMOUTH, KS 07180400: Flow=284cfs,Stage=3.77ft,Floodstage=22ft,2017-04-27 21:15,25-75,COTTONWOOD R NR FLORENCE, KS 07179730: Flow=305cfs,Stage=4.42ft,Floodstage=26ft,2017-04-27 21:15,25-75,NEOSHO R NR AMERICUS, KS 07172000: Flow=423cfs,Stage=2.64ft,2017-04-27 22:00,25-75,CANEY R NR ELGIN, KS 07169800: Flow=152cfs,Stage=3.61ft,2017-04-27 22:00,25-75,ELK R AT ELK FALLS, KS 07167500: Flow=49cfs,Stage=2.61ft,2017-04-27 21:15,25-75,OTTER C AT CLIMAX, KS 07157500: Flow=12cfs,Stage=2.81ft,Floodstage=6.5ft,2017-04-27 21:30,25-75,CROOKED C NR ENGLEWOOD, KS 07151500: Flow=239cfs,Stage=2.65ft,Floodstage=10ft,2017-04-27 22:00,25-75,CHIKASKIA R NR CORBIN, KS 07149000: Flow=113cfs,Stage=1.02ft,Floodstage=10ft,2017-04-27 21:30,25-75,MEDICINE LODGE R NR KIOWA, KS 07144910: Flow=10cfs,Stage=2.70ft,Floodstage=9ft,2017-04-27 22:00,25-75,SF NINNESCAH R NR PRATT, KS 07144780: Flow=124cfs,Stage=6.69ft,2017-04-27 21:30,25-75,NF NINNESCAH R AB CHENEY RE, KS 07144550: Flow=1250cfs,Stage=2.53ft,Floodstage=12ft,2017-04-27 22:00,25-75,ARKANSAS R AT DERBY, KS 07144300: Flow=821cfs,Stage=4.71ft,2017-04-27 21:45,25-75,ARKANSAS R AT WICHITA, KS 07143330: Flow=409cfs,Stage=3.10ft,Floodstage=10ft,2017-04-27 21:30,25-75,ARKANSAS R NR HUTCHINSON, KS 07143300: Flow=19cfs,Stage=4.74ft,Floodstage=18ft,2017-04-27 21:30,25-75,COW C NR LYONS, KS 07142575: Flow=28cfs,Stage=12.47ft,Floodstage=17ft,2017-04-27 21:30,25-75,RATTLESNAKE C NR ZENITH, KS 07141900: Flow=4.6cfs,Stage=2.96ft,Floodstage=24ft,2017-04-27 21:45,25-75,WALNUT C AT ALBERT, KS 07141780: Flow=4.9cfs,Stage=7.05ft,Floodstage=29ft,2017-04-27 21:15,25-75,WALNUT C AT NEKOMA, KS 07141300: Flow=75cfs,Stage=1.37ft,Floodstage=12ft,2017-04-27 21:30,25-75,ARKANSAS R AT GREAT BEND, KS 07141200: Flow=3.0cfs,Stage=7.41ft,Floodstage=31ft,2017-04-27 21:30,25-75,PAWNEE R AT ROZEL, KS 07138000: Flow=112cfs,Stage=4.33ft,Floodstage=10ft,2017-04-27 21:15,25-75,ARKANSAS R AT SYRACUSE, KS 07137500: Flow=119cfs,Stage=2.94ft,Floodstage=8ft,2017-04-27 21:15,25-75,ARKANSAS R NR COOLIDGE, KS 06916600: Flow=2590cfs,Stage=8.72ft,Floodstage=27ft,2017-04-27 21:45,25-75,MARAIS DES CYGNES R NR KS-MO ST LINE, KS 06915800: Flow=1260cfs,Stage=6.91ft,Floodstage=25ft,2017-04-27 21:15,25-75,MARAIS DES CYGNES R AT LA CYGNE, KS 06915000: Flow=12cfs,Stage=2.05ft,2017-04-27 21:30,25-75,BIG BULL C NR HILLSDALE, KS 06913500: Flow=465cfs,Stage=5.75ft,Floodstage=31ft,2017-04-27 21:30,25-75,MARAIS DES CYGNES R NR OTTAWA, KS 06913000: Flow=341cfs,Stage=2.48ft,Floodstage=20ft,2017-04-27 21:30,25-75,MARAIS DES CYGNES R NR POMONA, KS 06912500: Flow=18cfs,Stage=2.73ft,2017-04-27 21:45,25-75,HUNDRED AND TEN MILE C NR QUENEMO, KS 06911900: Flow=35cfs,Stage=8.16ft,Floodstage=19ft,2017-04-27 21:00,25-75,DRAGOON C NR BURLINGAME, KS 06910800: Flow=64cfs,Stage=2.83ft,Floodstage=19ft,2017-04-27 21:45,25-75,MARAIS DES CYGNES R NR READING, KS 06893500: Flow=96.5cfs,Stage=4.60ft,Floodstage=34ft,2017-04-27 21:45,25-75,Blue River at Kansas City, MO 06893300: Flow=19cfs,Stage=5.74ft,Floodstage=14ft,2017-04-27 21:15,25-75,INDIAN C AT OVERLAND PARK, KS 06893080: Flow=17cfs,Stage=3.90ft,Floodstage=16ft,2017-04-27 21:45,25-75,BLUE R NR STANLEY, KS 06893000: Flow=67000cfs,Stage=14.11ft,Floodstage=32ft,2017-04-27 21:30,25-75,Missouri River at Kansas City, MO 06892350: Flow=6280cfs,Stage=7.20ft,Floodstage=26ft,2017-04-27 21:45,25-75,KANSAS R AT DESOTO, KS 06892000: Flow=109cfs,Stage=3.24ft,Floodstage=23ft,2017-04-27 21:30,25-75,STRANGER C NR TONGANOXIE, KS 06891500: Flow=36cfs,Stage=4.70ft,Floodstage=23ft,2017-04-27 21:45,25-75,WAKARUSA R NR LAWRENCE, KS 06891000: Flow=5670cfs,Stage=4.45ft,Floodstage=17ft,2017-04-27 21:30,25-75,KANSAS R AT LECOMPTON, KS 06890100: Flow=135cfs,Stage=3.08ft,Floodstage=27ft,2017-04-27 21:45,25-75,DELAWARE R NR MUSCOTAH, KS 06889500: Flow=106cfs,Stage=0.98ft,Floodstage=29ft,2017-04-27 22:00,25-75,SOLDIER C NR TOPEKA, KS 06889200: Flow=55cfs,Stage=7.34ft,Floodstage=26ft,2017-04-27 21:30,25-75,SOLDIER C NR DELIA, KS 06889000: Flow=5700cfs,Stage=7.70ft,Floodstage=26ft,2017-04-27 21:30,25-75,KANSAS R AT TOPEKA, KS 06888500: Flow=154cfs,Stage=3.58ft,Floodstage=21ft,2017-04-27 21:45,25-75,MILL C NR PAXICO, KS 06888350: Flow=5130cfs,Stage=8.17ft,Floodstage=20ft,2017-04-27 21:30,25-75,KANSAS R NR BELVUE, KS 06887000: Flow=877cfs,Stage=2.16ft,Floodstage=19ft,2017-04-27 21:00,25-75,BIG BLUE R NR MANHATTAN, KS 06885500: Flow=80cfs,Stage=3.79ft,Floodstage=19ft,2017-04-27 21:30,25-75,BLACK VERMILLION R NR FRANKFORT, KS 06884200: Flow=36cfs,Stage=2.03ft,Floodstage=18ft,2017-04-27 21:45,25-75,MILL C AT WASHINGTON, KS 06882000: Flow=273cfs,Stage=3.95ft,Floodstage=20ft,2017-04-27 21:00,25-75,Big Blue River at Barneston, Nebr. 06879650: Flow=2.7cfs,Stage=3.57ft,2017-04-27 21:45,25-75,KINGS C NR MANHATTAN, KS 06879100: Flow=3340cfs,Stage=7.91ft,Floodstage=21ft,2017-04-27 21:30,25-75,KANSAS R AT FORT RILEY, KS 06878000: Flow=67cfs,Stage=5.34ft,Floodstage=19ft,2017-04-27 21:45,25-75,CHAPMAN C NR CHAPMAN, KS 06877600: Flow=1290cfs,Stage=8.34ft,Floodstage=26ft,2017-04-27 21:45,25-75,SMOKY HILL R AT ENTERPRISE, KS 06876900: Flow=234cfs,Stage=4.46ft,Floodstage=24ft,2017-04-27 21:30,25-75,SOLOMON R AT NILES, KS 06876700: Flow=46cfs,Stage=5.24ft,Floodstage=18ft,2017-04-27 21:45,25-75,SALT C NR ADA, KS 06876000: Flow=43cfs,Stage=2.85ft,2017-04-27 21:45,25-75,SOLOMON R AT BELOIT, KS 06875900: Flow=37cfs,Stage=7.74ft,Floodstage=21ft,2017-04-27 21:30,25-75,SOLOMON R NR GLEN ELDER, KS 06874000: Flow=44cfs,Stage=4.15ft,Floodstage=14ft,2017-04-27 21:30,25-75,SF SOLOMON R AT OSBORNE, KS 06873460: Flow=19cfs,Stage=4.93ft,Floodstage=12ft,2017-04-27 21:30,25-75,SF SOLOMON R AT WOODSTON, KS 06873000: Flow=39cfs,Stage=2.11ft,Floodstage=8.5ft,2017-04-27 21:15,25-75,SF SOLOMON R AB WEBSTER RE, KS 06872500: Flow=35cfs,Stage=4.02ft,Floodstage=15ft,2017-04-27 21:30,25-75,NF SOLOMON R AT PORTIS, KS 06871000: Flow=22cfs,Stage=3.12ft,Floodstage=11ft,2017-04-27 21:30,25-75,NF SOLOMON R AT GLADE, KS 06866500: Flow=213cfs,Stage=4.79ft,Floodstage=20ft,2017-04-27 21:45,25-75,SMOKY HILL R NR MENTOR, KS 06865500: Flow=158cfs,Stage=3.85ft,2017-04-27 21:30,25-75,SMOKY HILL R NR LANGLEY, KS 06864500: Flow=95cfs,Stage=1.99ft,Floodstage=20ft,2017-04-27 21:30,25-75,SMOKY HILL R AT ELLSWORTH, KS 06864000: Flow=37cfs,Stage=3.80ft,Floodstage=18ft,2017-04-27 21:30,25-75,SMOKY HILL R NR RUSSELL, KS 06863500: Flow=12cfs,Stage=5.23ft,Floodstage=26ft,2017-04-27 21:30,25-75,BIG C NR HAYS, KS 06862850: Flow=3.9cfs,Stage=2.44ft,Floodstage=11ft,2017-04-27 21:00,25-75,SMOKY HILL R BL SCHOENCHEN, KS 06862700: Flow=3.7cfs,Stage=3.67ft,2017-04-27 21:30,25-75,SMOKY HILL R NR SCHOENCHEN, KS 06861000: Flow=1.7cfs,Stage=0.53ft,Floodstage=7ft,2017-04-27 21:30,25-75,SMOKY HILL R NR ARNOLD, KS 06856600: Flow=348cfs,Stage=7.30ft,Floodstage=15ft,2017-04-27 21:30,25-75,REPUBLICAN R AT CLAY CENTER, KS 06856000: Flow=189cfs,Stage=5.12ft,Floodstage=15ft,2017-04-27 21:30,25-75,REPUBLICAN R AT CONCORDIA, KS 06853800: Flow=13cfs,Stage=1.84ft,Floodstage=16ft,2017-04-27 21:45,25-75,WHITE ROCK C NR BURR OAK, KS 06853500: Flow=102cfs,Stage=1.99ft,Floodstage=11ft,2017-04-27 21:30,25-75,REPUBLICAN R NR HARDY, NE 06847900: Flow=6.3cfs,Stage=3.67ft,Floodstage=11ft,2017-04-27 21:45,25-75,PRAIRIE DOG C AB KEITH SEBELIUS LAKE, KS 06818000: Flow=57400cfs,Stage=11.04ft,Floodstage=17ft,2017-04-27 21:30,25-75,Missouri River at St. Joseph, MO 06815000: Flow=223cfs,Stage=4.70ft,Floodstage=27ft,2017-04-27 21:45,25-75,Big Nemaha River at Falls City, Nebr. 06814000: Flow=34cfs,Stage=1.57ft,Floodstage=21ft,2017-04-27 21:45,25-75,TURKEY C NR SENECA, KS 385520094420000: Flow=15cfs,2013-07-17 23:45,Not ranked,INDIAN C AT COLLEGE BLVD, JOHNSON CO, KS 375350097262800: Stage=6.64ft,2017-04-27 21:00,Not ranked,L ARKANSAS R UPSTREAM OF ASR FAC NR SEDGWICK, KS 07187600: Flow=13100cfs,Stage=7.40ft,Floodstage=14ft,2017-04-27 21:30,Not ranked,SPRING R NR BAXTER SPRINGS, KS 07186055: Flow=736cfs,Stage=8.43ft,2017-04-27 21:45,Not ranked,COW C NR SCAMMON, KS 07185090: Flow=75.3cfs,Stage=9.18ft,2017-04-27 21:15,Not ranked,Tar Creek near Commerce, OK 07184500: Flow=266cfs,Stage=7.61ft,2017-04-27 21:00,Not ranked,LABETTE C NR OSWEGO, KS 07183300: Stage=14.78ft,Floodstage=29ft,2017-04-27 21:15,Not ranked,NEOSHO R NR ERIE, KS 07182395: Stage=7.74ft,2017-04-27 22:00,Not ranked,NEOSHO R AT HARTFORD, KS 07182390: Flow=1610cfs,Stage=8.24ft,Floodstage=22ft,2017-04-27 21:30,Not ranked,NEOSHO R AT NEOSHO RAPIDS, KS 07182260: Flow=942cfs,Stage=4.41ft,Floodstage=20ft,2017-04-27 21:30,Not ranked,COTTONWOOD R AT EMPORIA, KS 07182200: Flow=138cfs,Stage=7.87ft,2017-04-27 21:30,Not ranked,SF COTTONWOOD R NR BAZAAR, KS 07180200: Stage=5.80ft,2017-04-27 21:30,Not ranked,COTTONWOOD R AT MARION, KS 07179785: Flow=14cfs,Stage=9.89ft,2017-04-27 21:30,Not ranked,NF COTTONWOOD R NR DURHAM, KS 07179750: Flow=269cfs,Stage=4.53ft,2017-04-27 21:30,Not ranked,NEOSHO R AT BURLINGAME RD NR EMPORIA, KS 07179710: Stage=12.41ft,2017-04-27 21:00,Not ranked,NEOSHO R NR DUNLAP, KS 07179700: Flow=60cfs,Stage=9.89ft,2017-04-27 21:15,Not ranked,ROCK C NR DUNLAP, KS 07179300: Flow=15cfs,Stage=7.92ft,2017-04-27 21:45,Not ranked,NEOSHO R NR PARKERVILLE, KS 07170990: Flow=8240cfs,Stage=10.79ft,2017-04-27 21:45,Not ranked,VERDIGRIS R AT COFFEYVILLE, KS 07170700: Stage=5.25ft,2017-04-27 21:00,Not ranked,BIG HILL C NR CHERRYVALE, KS 07165750: Flow=163cfs,Stage=7.98ft,2017-04-27 22:00,Not ranked,VERDIGRIS R NR VIRGIL, KS 07157940: Flow=27cfs,Stage=6.15ft,2017-04-27 22:00,Not ranked,BLUFF C NR BUTTERMILK, KS 07157740: Flow=40cfs,Stage=8.13ft,2017-04-27 21:15,Not ranked,CIMARRON R NR BUTTERMILK, KS 07148111: Flow=330cfs,Stage=5.79ft,2017-04-27 21:30,Not ranked,GROUSE C NR SILVERDALE, KS 07147900: Stage=5.77ft,Floodstage=18ft,2017-04-27 21:15,Not ranked,WALNUT R AT ARKANSAS CITY, KS 07147190: Stage=4.71ft,Floodstage=21ft,2017-04-27 21:15,Not ranked,WHITEWATER R AT AUGUSTA, KS 07146800: Flow=40cfs,Stage=6.15ft,Floodstage=21ft,2017-04-27 21:00,Not ranked,WB WALNUT R NR EL DORADO, KS 07145600: Flow=2850cfs,Stage=9.59ft,Floodstage=17ft,2017-04-27 21:45,Not ranked,ARKANSAS R ON HWY 160 AT OXFORD, KS 07144795: Flow=0.43cfs,Stage=1.23ft,2015-11-12 10:00,Not ranked,NF NINNESCAH R AT CHENEY DAM, KS 07144790: Stage=1422.37ft,2017-04-27 21:00,Not ranked,CHENEY RE NR CHENEY, KS 07144570: Flow=1110cfs,Stage=7.41ft,Floodstage=16.5ft,2017-04-27 21:15,Not ranked,ARKANSAS R AT MULVANE, KS 07144490: Flow=23cfs,Stage=7.83ft,2017-04-27 21:15,Not ranked,COWSKIN C AT KELLOGG ST, WICHITA, KS 07144486: Flow=1.4cfs,Stage=5.25ft,2017-04-27 22:00,Not ranked,CALFSKIN C AT 119TH ST, WICHITA, KS 07144480: Flow=17cfs,Stage=8.09ft,Floodstage=18ft,2017-04-27 21:30,Not ranked,COWSKIN C AT 119TH ST AT WICHITA, KS 07144470: Stage=10.99ft,2017-04-27 21:15,Not ranked,COWSKIN C AT 29TH ST NORTH OF WICHITA, KS 07144301: Flow=0.00cfs,Stage=6.49ft,2017-04-27 21:45,Not ranked,FLOODWAY AT ARKANSAS R AT WICHITA, KS 07144201: Flow=0.00cfs,Stage=1.99ft,2017-04-27 21:00,Not ranked,FLOODWAY AT L ARKANSAS R AT VALLEY CENTER, KS 07144100: Flow=240cfs,Stage=4.33ft,Floodstage=22ft,2017-04-27 21:15,Not ranked,L ARKANSAS R NR SEDGWICK, KS 07144050: Flow=24cfs,Stage=-0.39ft,Floodstage=19ft,2017-04-27 21:15,Not ranked,EMMA C AT SEDGWICK, KS 07143672: Flow=118cfs,Stage=6.96ft,Floodstage=25ft,2017-04-27 21:30,Not ranked,L ARKANSAS R AT HWY 50 NR HALSTEAD, KS 07143375: Flow=541cfs,Stage=5.82ft,2017-04-27 21:15,Not ranked,ARKANSAS R NR MAIZE, KS 07143310: Stage=2.42ft,Floodstage=9.5ft,2017-04-27 21:15,Not ranked,COW C NR HUTCHINSON, KS 07142680: Flow=288cfs,Stage=10.10ft,2017-04-27 21:00,Not ranked,ARKANSAS R NR NICKERSON, KS 07142019: Flow=43cfs,Stage=2.69ft,2017-04-27 22:00,Not ranked,CHEYENNE BOTTOMS DV NR GREAT BEND, KS 07141220: Flow=81cfs,Stage=4.81ft,2017-04-27 22:00,Not ranked,ARKANSAS R NR LARNED, KS 07141000: Flow=0.61cfs,Stage=3.74ft,2017-04-27 21:45,Not ranked,BUCKNER C AT HANSTON, KS 07140900: Flow=3.9cfs,Stage=2.81ft,2017-04-27 21:15,Not ranked,BUCKNER C NR JETMORE, KS 07140890: Flow=1.6cfs,Stage=3.04ft,2017-04-27 21:45,Not ranked,BUCKNER C BL HORSETHIEF RE NR JETMORE, KS 07140880: Stage=4.11ft,2017-04-27 21:15:00,Not ranked,BUCKNER C AB HORSETHIEF RE NR JETMORE, KS 07140850: Flow=0.00cfs,Stage=2.22ft,Floodstage=30ft,2017-04-27 21:00,Not ranked,PAWNEE R NR BURDETT, KS 07139500: Stage=6.01ft,Floodstage=11ft,2017-04-27 21:00,Not ranked,ARKANSAS R AT DODGE CITY, KS 07139000: Flow=0.00cfs,Stage=5.19ft,Floodstage=10ft,2017-04-27 21:30,Not ranked,ARKANSAS R AT GARDEN CITY, KS 07138075: Flow=5.6cfs,2017-04-11 20:15,Stage=1.46ft,2017-04-27 21:00:00,Not ranked,FARMERS DITCH NR DEERFIELD, KS 07138070: Flow=56cfs,Stage=7.04ft,Floodstage=14ft,2017-04-27 21:45,Not ranked,ARKANSAS R AT DEERFIELD, KS 07138064: Flow=0.00cfs,Stage=1.95ft,2017-04-27 21:15,Not ranked,SOUTHSIDE DITCH RETURN NR DEERFIELD, KS 07138063: Flow=4.3cfs,2016-10-07 23:45,Stage=1.54ft,2017-04-27 21:00:00,Not ranked,SOUTHSIDE DITCH NR LAKIN, KS 07138050: Stage=2.40ft,2017-04-27 21:00:00,Not ranked,Equipment malfunction,AMAZON GREAT EASTERN DITCH NR LAKIN, KS 07138020: Flow=104cfs,Stage=6.05ft,2017-04-27 21:45,Not ranked,ARKANSAS R AT KENDALL, KS 07137010: Flow=0.00cfs,Stage=1.95ft,2017-04-27 21:45,Not ranked,FRONTIER DITCH RETURN NR COOLIDGE, KS 07137000: Flow=0.00cfs,Stage=9.16ft,2017-04-27 21:45,Not ranked,FRONTIER DITCH NR COOLIDGE, KS 07134990: Flow=8.7cfs,Stage=2.75ft,2017-04-27 20:15,Not ranked,WILD HORSE CREEK ABOVE HOLLY, CO 06917630: Flow=5.38cfs,Stage=1.95ft,2017-04-27 20:15,Not ranked,East Drywood Creek at Prairie State Park 06917560: Flow=2010cfs,Stage=12.40ft,Floodstage=25ft,2017-04-27 21:15,Not ranked,Marmaton River near Richards, MO 06917380: Flow=194cfs,2008-11-12 23:45,Not ranked,MARMATON R NR MARMATON, KS 06917240: Flow=100cfs,Stage=1.18ft,2017-04-27 22:00,Not ranked,MARMATON R NR UNIONTOWN, KS 06914995: Stage=917.28ft,2017-04-27 21:30,Not ranked,HILLSDALE LK NR HILLSDALE, KS 06914990: Flow=3.3cfs,Stage=3.01ft,2017-04-27 21:30,Not ranked,L BULL C NR SPRING HILL, KS 06914950: Flow=7.2cfs,Stage=2.20ft,2017-04-27 22:00,Not ranked,BIG BULL C NR EDGERTON, KS 06914500: Flow=217cfs,Stage=6.29ft,Floodstage=23ft,2017-04-27 21:30,Not ranked,POTTAWATOMIE C AT LANE, KS 06914100: Flow=110cfs,Stage=4.17ft,Floodstage=23ft,2017-04-27 21:45,Not ranked,POTTAWATOMIE C NR SCIPIO, KS 06912490: Stage=975.86ft,2017-04-27 21:45,Not ranked,POMONA LK NR QUENEMO, KS 06911490: Flow=24cfs,Stage=0.82ft,Floodstage=10ft,2017-04-27 21:30,Not ranked,SALT C AT LYNDON, KS 06910997: Stage=1036.95ft,2017-04-27 21:30,Not ranked,MELVERN LK NR MELVERN, KS 06893578: Flow=147cfs,Stage=5.98ft,Floodstage=33ft,2017-04-27 21:30,Not ranked,Blue River at Stadium Drive in Kansas City, MO 06893562: Stage=4.50ft,2017-04-27 21:45,Not ranked,Brush Creek at Rockhill Road in Kansas City, MO 06893557: Flow=1.53cfs,Stage=35.56ft,Floodstage=47ft,2017-04-27 21:15,Not ranked,Brush Creek at Ward Parkway in Kansas City, MO 06893400: Stage=83.12ft,2017-04-27 21:30,Not ranked,Indian Creek at 103rd St in Kansas City, MO 06893390: Flow=51cfs,Stage=10.38ft,Floodstage=20ft,2017-04-27 21:30,Not ranked,INDIAN C AT STATE LINE RD, LEAWOOD, KS 06893350: Flow=5.1cfs,Stage=2.01ft,2017-04-27 21:15,Not ranked,TOMAHAWK C NR OVERLAND PARK, KS 06893150: Flow=35.8cfs,Stage=25.04ft,Floodstage=35ft,2017-04-27 21:00,Not ranked,Blue River at Blue Ridge Blvd Ext in KC, MO 06893100: Flow=25cfs,Stage=5.41ft,2017-04-27 21:30,Not ranked,BLUE R AT KENNETH RD, OVERLAND PARK, KS 06892950: Stage=14.96ft,Floodstage=33ft,2017-04-27 21:45,Not ranked,KANSAS R AT KANSAS CITY, KS 06892518: Flow=6480cfs,Stage=11.32ft,2017-04-27 21:45,Not ranked,KANSAS R NR LAKE QUIVIRA, KS 06892513: Flow=19cfs,Stage=48.74ft,2017-04-27 21:30,Not ranked,MILL C AT JOHNSON DRIVE, SHAWNEE, KS 06892495: Flow=27cfs,Stage=57.49ft,2017-04-27 21:45,Not ranked,CEDAR C NR DESOTO, KS 06892494: Stage=3.24ft,2017-04-27 22:00,Not ranked,CAMP C AT 95TH ST NR DESOTO, KS 06892493: Stage=76.98ft,2017-04-27 22:00,Not ranked,CEDAR C AT 95TH ST NR DESOTO, KS 06892360: Flow=31cfs,Stage=5.09ft,2017-04-27 21:30,Not ranked,KILL C AT 95TH ST NR DESOTO, KS 06891850: Flow=58cfs,Stage=2.78ft,Floodstage=17ft,2017-04-27 21:30,Not ranked,STRANGER C AT EASTON, KS 06891810: Flow=199cfs,2015-06-09 23:45,Not ranked,STRANGER C NR POTTER, KS 06891478: Stage=876.92ft,2017-04-27 21:00,Not ranked,CLINTON LK NR LAWRENCE, KS 06891260: Flow=37cfs,Stage=4.08ft,2017-04-27 21:30,Not ranked,WAKARUSA R NR RICHLAND, KS 06891200: Stage=3.27ft,Floodstage=15ft,2017-04-27 21:15,Not ranked,WAKARUSA R AT WAKARUSA, KS 06891080: Flow=6370cfs,Stage=-9.20ft,Floodstage=18ft,2017-04-27 21:45,Not ranked,KANSAS R AT LAWRENCE, KS 06890900: Stage=29.46ft,2017-04-27 21:30:00,Not ranked,DELAWARE R AT PERRY, KS 06890898: Stage=891.42ft,2017-04-27 21:30,Not ranked,PERRY LK NR PERRY, KS 06889630: Flow=7.2cfs,Stage=4.68ft,Floodstage=24ft,2017-04-27 21:15,Not ranked,SHUNGANUNGA C AT TOPEKA, KS 06889585: Stage=4.99ft,Floodstage=15ft,2017-04-27 21:15,Not ranked,SHUNGANUNGA C AT GAGE BLVD, TOPEKA, KS 06888990: Flow=5550cfs,Stage=7.17ft,2017-04-27 21:30,Not ranked,KANSAS R AT TOPEKA WATER PLANT, KS 06888700: Stage=7.68ft,Floodstage=25ft,2017-04-27 21:30,Not ranked,CROSS C AT ROSSVILLE, KS 06888300: Flow=176cfs,Stage=9.44ft,Floodstage=27ft,2017-04-27 21:00,Not ranked,ROCK C NR LOUISVILLE, KS 06887500: Flow=4780cfs,Stage=5.71ft,Floodstage=19ft,2017-04-27 21:30,Not ranked,KANSAS R AT WAMEGO, KS 06886900: Stage=1073.23ft,2017-04-27 21:00,Not ranked,TUTTLE C LK NR MANHATTAN, KS 06886850: Stage=5.02ft,2017-04-27 21:30,Not ranked,MILL C NR RILEY, KS 06886500: Flow=62cfs,Stage=1.32ft,Floodstage=16ft,2017-04-27 21:15,Not ranked,FANCY C AT WINKLER, KS 06884700: Stage=15.65ft,Floodstage=26ft,2017-04-27 21:15,Not ranked,BIG BLUE R AT BLUE RAPIDS, KS 06879820: Stage=8.03ft,Floodstage=18ft,2017-04-27 22:00,Not ranked,KANSAS R AT MANHATTAN, KS 06879815: Stage=2.99ft,2017-04-27 22:00,Not ranked,WILDCAT C AT SETH CHILDS RD, MANHATTAN, KS 06879810: Flow=36cfs,Stage=3.06ft,Floodstage=14ft,2017-04-27 21:15,Not ranked,WILDCAT C AT SCENIC DRIVE, MANHATTAN, KS 06879805: Stage=6.09ft,2017-04-27 21:00,Not ranked,WILDCAT C AT KEATS, KS 06878600: Flow=103cfs,Stage=6.30ft,Floodstage=21ft,2017-04-27 21:15,Not ranked,LYON C NR JUNCTION CITY, KS 06876440: Flow=110cfs,Stage=2.67ft,Floodstage=26ft,2017-04-27 21:15,Not ranked,SOLOMON R NR MINNEAPOLIS, KS 06876070: Stage=7.42ft,2017-04-27 21:15,Not ranked,SOLOMON R NR SIMPSON, KS 06870300: Flow=32cfs,Stage=20.39ft,2017-04-27 21:15,Not ranked,GYPSUM C NR GYPSUM, KS 06870200: Stage=7.66ft,Floodstage=27ft,2017-04-27 21:45,Not ranked,SMOKY HILL R AT NEW CAMBRIA, KS 06869950: Flow=23cfs,Stage=3.34ft,Floodstage=24ft,2017-04-27 21:00,Not ranked,MULBERRY C NR SALINA, KS 06868850: Flow=196cfs,Stage=15.09ft,Floodstage=30ft,2017-04-27 21:45,Not ranked,SALINE R AT LINCOLN, KS 06868100: Stage=1516.90ft,2017-04-27 21:30,Not ranked,WILSON LK NR WILSON, KS 06867500: Flow=8.4cfs,Stage=9.26ft,2017-04-27 21:30,Not ranked,PARADISE C NR PARADISE, KS 06866900: Flow=2.7cfs,Stage=2.34ft,Floodstage=13ft,2017-04-27 21:00,Not ranked,SALINE R NR WAKEENEY, KS 06865000: Stage=1466.75ft,2017-04-27 21:30,Not ranked,KANOPOLIS LK NR KANOPOLIS, KS 06864050: Flow=58cfs,2011-06-08 23:45,Not ranked,SMOKY HILL R NR BUNKER HILL, KS 06863420: Flow=3.9cfs,Stage=1.97ft,2017-04-27 21:15,Not ranked,BIG C NR ELLIS, KS 06863000: Flow=5.7cfs,Stage=1.76ft,2017-04-27 22:00,Not ranked,SMOKY HILL R AT PFEIFER, KS 06861500: Stage=2118.79ft,2017-04-27 21:15,Not ranked,CEDAR BLUFF RE NR ELLIS, KS 06860900: Flow=0.00cfs,Stage=6.98ft,2017-04-27 21:30,Not ranked,HACKBERRY C NR TREGO CENTER, KS 06857050: Stage=1146.23ft,2017-04-27 21:30,Not ranked,MILFORD LK NR JUNCTION CITY, KS 06855850: Flow=34cfs,Stage=4.42ft,2017-04-27 21:15,Not ranked,BUFFALO C 4 MI E OF JAMESTOWN, KS 06854000: Stage=0.04ft,2017-04-27 21:45,Not ranked,WHITE ROCK C AT LOVEWELL, KS 06853020: Flow=71cfs,Stage=4.16ft,Floodstage=11ft,2017-04-27 21:30,Not ranked,Republican River at Guide Rock, Nebr. 06852500: Not ranked,Seasonal site,Courtland Canal at Nebraska-Kansas Stateline 06846500: Flow=0.00cfs,Stage=2.79ft,Floodstage=16ft,2017-04-27 21:00,Not ranked,BEAVER C AT CEDAR BLUFFS, KS 06845110: Flow=3.2cfs,Stage=5.33ft,Floodstage=17ft,2017-04-27 21:30,Not ranked,SAPPA C NR LYLE, KS 06827000: Flow=7.2cfs,Stage=3.52ft,2017-04-27 21:45,Not ranked,SF REPUBLICAN R NR CO-KS ST LINE, KS 06820475: Stage=8.42ft,Floodstage=20ft,2017-04-27 21:00,Not ranked,MISSOURI R AT LEAVENWORTH, KS 06818300: Stage=13.35ft,Floodstage=22ft,2017-04-27 22:00,Not ranked,MISSOURI R AT ATCHISON, KS Go to WaterWatch (offsite) for a larger map with additional options
USGS Home Water Resources Biology Geography Geology Geospatial

Accessibility FOIA Privacy Policies and Notices

Take Pride in America logo USA.gov logo U.S. Department of the Interior | U.S. Geological Survey
Page Contact Information: GS-W-KS_info@usgs.gov
Page Last Modified: 2017-04-18 11:00:17 CDT